sat.trackr.live / text

‹ back to catalog

STARLINK-3944

NORAD 52544 · 2022-051M

PAYLOAD ACTIVE UNKNOWN

§ Identity

Operator
Country
US
Launch date
2022-05-13
Launch site
AFWTR
Launch vehicle
Mass (kg)
RCS (m²)

Purposes: comms

External: N2YO · Heavens-Above · Gunter

§ Orbital elements

Epoch: 2026-05-25T03:39:36.773280Z

Period
95.44 min
Inclination
53.2142°
Eccentricity
0.0001227
Mean motion
15.08838342 rev/d
Perigee alt
538.9 km
Apogee alt
540.6 km
Semi-major
6,917.9 km
B*
1.4451e-5
RAAN
150.8739°
Arg perigee
87.5851°
Mean anomaly
272.5281°
Rev number
22,291

§ Raw data

STARLINK-39441 52544U 22051M   26145.15250895 -.00000058  00000+0  14451-4 0  99952 52544  53.2142 150.8739 0001227  87.5851 272.5281 15.08838342222913

JSON: /api/v1/satellites/52544 · /tle

For live sub-satellite position, see the globe view (requires WebGL).

§ Visibility from observer

Set your observer location to see the next 7 days of passes ≥ 10°. The values pass through the URL so the page stays shareable.

No JS? Fill the form by hand. The geolocation button needs JavaScript.